User: anonymous
Location: Wawayanda State Park
(41.1833°N, 74.4333°W)
Time: 09:44:07
(UTC-04:00)
Language:

Landsat 7 - Orbit

View from above orbital plane
View from above orbital plane
View from above satellite
View from above satellite

Ground track
Ground track

The orbit data is extracted from the following two-line orbital elements,

1 25682U 99020A   14106.14772744  .00000162  00000-0  46011-4 0  1493
2 25682 098.2202 176.5700 0000768 075.1872 284.9320 14.57099281797956
Epoch (UTC): 16 April 2014 03:32:43
Eccentricity: 0.0000768
inclination: 98.2202°
perigee height: 702 km
apogee height: 703 km
right ascension of ascending node: 176.5700°
argument of perigee: 75.1872°
revolutions per day: 14.57099281
mean anomaly at epoch: 284.9320°
orbit number at epoch: 79795

The dashed part of the orbit path shows where the satellite is in the earth's shadow,  

DLR